LENINGRAD/PULKOVO current weather conditions

sailwx.info

Wind at 1 knots

Air temperature -2.0° C
Visibility: greater than 5.4 NM
Dewpoint -11.0° C

Last reported at 2017-Mar-30 21:30 UTC.
Time now 2017-Mar-30 22:44 UTC

Location: N 59°48' E 030°16'.
View on Google Maps.

See reports from other nearby stations

  
Tides and Currents Weather Stations Pressure Air Temp Water Temp Dewpoint Dewpoint Depression Visibility Wind Speed Wind Dir Waves Ship Positions
date/time (UTC)wind fromknots sea level pressurealtimeterstation pressurevisibilityair tempwater tempwave heightnotes
2017-Mar-30 21:30 5.4-2.0
2017-Mar-30 21:00 5.4-3.0
2017-Mar-30 20:30 5.4-3.0
2017-Mar-30 20:00 5.4-3.0
2017-Mar-30 19:30 5.4-2.0
2017-Mar-30 19:00 5.4-2.0
2017-Mar-30 18:30 230 5 5.4-2.0
2017-Mar-30 18:00 260 5 5.4-2.0
2017-Mar-30 17:30 270 3 5.4-2.0
2017-Mar-30 17:00 270 5 5.4-1.0
2017-Mar-30 16:30 270 7 5.4-1.0
2017-Mar-30 16:00 280 9 5.4-0.0
2017-Mar-30 15:30 280 11 5.4 1.0
2017-Mar-30 15:00 300 9 5.4 1.0
2017-Mar-30 14:30 310 13 5.4 1.0
2017-Mar-30 14:00 310 9 5.4 1.0
2017-Mar-30 13:30 300 9 5.4 1.0
2017-Mar-30 13:00 310 7 5.4 1.0
2017-Mar-30 12:30 300 9 5.4 1.0
2017-Mar-30 12:00 310 9 5.4 1.0
2017-Mar-30 11:30 310 9 5.4 1.0
2017-Mar-30 11:00 300 9 5.4-0.0
2017-Mar-30 10:30 290 9 5.4-0.0
2017-Mar-30 10:00 300 11 5.4-0.0
2017-Mar-30 09:30 290 13 5.4-0.0
2017-Mar-30 09:00 310 11 5.4-1.0
2017-Mar-30 08:30 300 9 5.4-1.0
2017-Mar-30 08:00 300 7 5.4-2.0
2017-Mar-30 07:30 300 7 5.4-2.0
2017-Mar-30 07:00 280 9 5.4-2.0
2017-Mar-30 06:30 280 9 5.4-3.0
2017-Mar-30 06:00 290 9 5.4-3.0
2017-Mar-30 05:30 280 9 5.4-3.0
2017-Mar-30 05:00 270 7 5.4-4.0
2017-Mar-30 04:30 270 5 5.4-5.0
2017-Mar-30 04:00 260 3 5.4-6.0
2017-Mar-30 03:30 260 3 5.4-7.0
2017-Mar-30 03:00 250 3 5.4-7.0
2017-Mar-30 02:30 250 3 5.4-7.0
2017-Mar-30 02:00 240 5 5.4-6.0
2017-Mar-30 01:30 250 5 5.4-6.0
2017-Mar-30 01:00 250 5 5.4-6.0
2017-Mar-30 00:30 250 3 5.4-6.0
2017-Mar-30 00:00 250 3 5.4-5.0
2017-Mar-29 23:30 250 5 5.4-6.0
2017-Mar-29 23:00 260 5 5.4-5.0
2017-Mar-29 22:30 260 3 5.4-5.0
2017-Mar-29 22:00 260 5 5.4-5.0
2017-Mar-29 21:30 260 5 5.4-5.0
2017-Mar-29 21:00 260 3 5.4-4.0
2017-Mar-29 20:30 260 3 5.4-4.0
2017-Mar-29 20:00 260 5 5.4-4.0
2017-Mar-29 19:30 280 5 5.4-4.0
2017-Mar-29 19:00 270 3 5.4-4.0
2017-Mar-29 18:30 270 5 5.4-3.0
2017-Mar-29 18:00 270 5 5.4-3.0
2017-Mar-29 17:30 280 11 5.4-2.0
2017-Mar-29 17:00 320 7 5.4-1.0
2017-Mar-29 16:30 310 7 5.4-1.0
2017-Mar-29 16:00 290 11 5.4-0.0
2017-Mar-29 15:30 300 11 5.4-0.0
2017-Mar-29 15:00 290 11 5.4-0.0
2017-Mar-29 14:30 300 11 5.4-0.0
2017-Mar-29 14:00 290 13 5.4-0.0
2017-Mar-29 13:30 300 11 5.4-0.0
2017-Mar-29 13:00 290 11 5.4-0.0
2017-Mar-29 12:30 310 13 5.4 1.0
2017-Mar-29 12:00 300 13 5.4 1.0
2017-Mar-29 11:30 330 11 gusting 21 5.4-0.0
2017-Mar-29 11:00 310 15 5.4 1.0
2017-Mar-29 10:30 300 11 5.4 1.0
2017-Mar-29 10:00 300 11 5.4 1.0
2017-Mar-29 09:30 310 11 5.4-0.0
2017-Mar-29 09:00 290 13 5.4-0.0
2017-Mar-29 08:30 290 11 5.4-0.0
2017-Mar-29 08:00 300 11 5.4-0.0
2017-Mar-29 07:30 280 9 5.4-1.0
2017-Mar-29 07:00 280 9 5.4-1.0
2017-Mar-29 06:30 270 7 5.4-2.0
2017-Mar-29 06:00 280 7 5.4-2.0
2017-Mar-29 05:30 280 7 5.4-3.0
2017-Mar-29 05:00 280 5 5.4-4.0
2017-Mar-29 04:30 260 3 5.4-5.0
2017-Mar-29 04:00 250 3 5.4-5.0
2017-Mar-29 03:30 250 3 5.4-6.0
2017-Mar-29 03:00 250 3 5.4-6.0
2017-Mar-29 02:30 260 3 5.4-5.0
2017-Mar-29 02:00 230 5 5.4-5.0
2017-Mar-29 01:30 260 5 5.4-5.0
2017-Mar-29 01:00 270 7 5.4-3.0
2017-Mar-29 00:30 300 9 5.4-3.0
2017-Mar-29 00:00 300 9 5.4-2.0
2017-Mar-28 23:30 300 7 5.4-2.0
2017-Mar-28 23:00 280 7 5.4-5.0
2017-Mar-28 22:30 270 7 5.4-4.0
2017-Mar-28 22:00 270 7 5.4-4.0